Flag Weather past 2 weeks in Bitterfeld-Wolfen, Saxony-Anhalt, Germany

Now
37 °F

Partly sunny.


Feels Like: 31 °F
Forecast: 28 / 38 °F
Wind: 9 mph from East

Location: Leipzig-Schkeuditz

Current Time: Nov 27, 2014 at 3:36:51 PM

Latest Report: Nov 27, 2014 at 3:20 PM


Visibility: 6 mi

Pressure: 29.92 "Hg

Humidity: 87%

Dew point: 34 °F

Location of Bitterfeld-WolfenLocation

Historic Weather in Bitterfeld-Wolfen — Graph

°F

Bitterfeld-Wolfen temperature yesterday

Maximum temperature yesterday: 43 °F (at 12:50 PM)
Minimum temperature yesterday: 32 °F (at 11:20 PM)
Average temperature yesterday: 36 °F

Past Weeks' High & Low Weather Summary

 TemperatureHumidityPressure
High57 °F (Nov 14, 12:20 PM)100% (Nov 12, 2:20 PM)30.36 "Hg (Nov 12, 2:20 PM)
Low27 °F (Nov 27, 6:20 AM)63% (Nov 23, 1:50 PM)29.53 "Hg (Nov 16, 4:20 AM)
Average43 °F94%30.01 "Hg
* Reported Nov 12 2:20 PM — Nov 27 2:20 PM, Bitterfeld-Wolfen, Weather by CustomWeather, © 2014

Note: Actual official high and low records may vary slightly from our data, if they occured in-between our weather recording intervals... More about our weather records

Advertising

Bitterfeld-Wolfen weather history for previous 24 hours

 ConditionsComfort  
Time TempWeatherWind HumidityBarometerVisibility
2:20 PM
Nov 27
41 °FBroken clouds.10 mph76%29.92 "HgN/A
1:50 PM41 °FScattered clouds.12 mph76%29.92 "HgN/A
1:20 PM41 °FSunny.10 mph76%29.92 "Hg10 mi
12:50 PM41 °FSunny.12 mph76%29.92 "Hg10 mi
12:20 PM41 °FSunny.10 mph76%29.92 "Hg10 mi
11:50 AM41 °FSunny.12 mph76%29.95 "Hg10 mi
11:20 AM39 °FSunny.9 mph81%29.95 "Hg10 mi
10:50 AM37 °FSunny.8 mph87%29.95 "Hg10 mi
10:20 AM36 °FClear.7 mph87%29.95 "Hg6 mi
9:20 AM32 °FClear.8 mph100%29.95 "Hg5 mi
8:50 AM30 °FClear.7 mph100%29.98 "Hg5 mi
8:20 AM28 °FClear.8 mph100%29.98 "Hg5 mi
7:50 AM28 °FClear.7 mph100%29.98 "Hg5 mi
7:20 AM28 °FClear.7 mph100%29.98 "Hg10 mi
6:50 AM28 °FClear.8 mph100%29.98 "Hg10 mi
6:20 AM27 °FClear.9 mph100%29.98 "Hg10 mi
5:50 AM28 °FClear.10 mph100%29.98 "Hg10 mi
5:20 AM28 °FClear.8 mph100%29.98 "Hg10 mi
4:50 AM30 °FClear.10 mph100%29.98 "Hg10 mi
4:20 AM30 °FClear.9 mph100%29.98 "Hg10 mi
3:50 AM32 °FClear.9 mph100%29.98 "Hg10 mi
3:20 AM30 °FClear.9 mph100%29.98 "Hg10 mi
2:50 AM30 °FClear.9 mph100%30.01 "Hg10 mi
2:20 AM30 °FClear.8 mph100%30.01 "Hg10 mi
1:50 AM30 °FClear.8 mph100%30.01 "Hg10 mi
1:20 AM32 °FClear.8 mph93%30.04 "Hg10 mi
12:50 AM32 °FClear.8 mph100%30.04 "Hg10 mi
12:20 AM34 °FClear.7 mph93%30.04 "Hg10 mi
11:50 PM
Nov 26
34 °FClear.8 mph100%30.07 "Hg10 mi
11:20 PM32 °FClear.7 mph100%30.07 "Hg10 mi
10:50 PM34 °FClear.8 mph93%30.07 "Hg10 mi
10:20 PM34 °FClear.8 mph93%30.07 "Hg10 mi
9:50 PM34 °FClear.8 mph93%30.07 "Hg10 mi
9:20 PM34 °FClear.8 mph93%30.07 "Hg10 mi
8:50 PM34 °FClear.8 mph93%30.07 "Hg10 mi
8:20 PM34 °FClear.8 mph93%30.07 "Hg10 mi
7:50 PM34 °FClear.9 mph93%30.09 "Hg10 mi
7:20 PM36 °FClear.10 mph87%30.09 "Hg10 mi
6:50 PM36 °FPassing clouds.13 mph87%30.09 "HgN/A
6:20 PM36 °FPassing clouds.13 mph87%30.09 "HgN/A
5:50 PM36 °FClear.15 mph87%30.09 "Hg10 mi
5:20 PM36 °FPassing clouds.18 mph87%30.09 "HgN/A
4:50 PM37 °FPassing clouds.16 mph87%30.09 "HgN/A
4:20 PM37 °FPassing clouds.15 mph87%30.09 "HgN/A
3:50 PM39 °FScattered clouds.18 mph81%30.12 "HgN/A
3:20 PM41 °FSunny.16 mph81%30.12 "Hg10 mi
Weather by CustomWeather, © 2014

See weather overviewHow to use our weather pages